Printer-friendly version
Follow the MPC on Twitter Follow the MPC on Facebook The MPC blog
Minor Planet Center

MPEC 2007-V41 : 2007 VE8

The following Minor Planet Electronic Circular may be linked-to from your own Web pages, but must not otherwise be redistributed electronically.

A form allowing access to any MPEC is at the bottom of this page.


Read MPEC 2007-V40 Read MPEC 2007-V42


M.P.E.C. 2007-V41                                Issued 2007 Nov. 5, 22:13 UT

     The Minor Planet Electronic Circulars contain information on unusual
         minor planets and routine data on comets.  They are published
   on behalf of Commission 20 of the International Astronomical Union by the
          Minor Planet Center, Smithsonian Astrophysical Observatory,
                          Cambridge, MA 02138, U.S.A.

             Prepared using the Tamkin Foundation Computer Network

                              MPC@CFA.HARVARD.EDU
          URL http://www.cfa.harvard.edu/iau/mpc.html  ISSN 1523-6714

                                   2007 VE8

Observations:
     K07V08E* C2007 11 05.33920 03 32 48.12 +16 29 25.1          20.0 V EV041G96
     K07V08E  C2007 11 05.34419 03 32 51.50 +16 30 34.9          19.9 V EV041G96
     K07V08E  C2007 11 05.34919 03 32 54.92 +16 31 45.4          19.9 V EV041G96
     K07V08E  C2007 11 05.35420 03 32 58.27 +16 32 55.2          19.7 V EV041G96
     K07V08E  C2007 11 05.43494 03 33 53.23 +16 51 35.7                 EV041G96
     K07V08E  C2007 11 05.43548 03 33 53.62 +16 51 43.1          19.6 V EV041G96
     K07V08E  C2007 11 05.48601 03 34 28.66 +17 03 15.6          19.9 V EV041G96
     K07V08E  C2007 11 05.48654 03 34 29.06 +17 03 23.3          19.9 V EV041G96
     K07V08E  C2007 11 05.48707 03 34 29.42 +17 03 30.4          19.8 V EV041G96
     K07V08E  C2007 11 05.48760 03 34 29.78 +17 03 37.5          19.6 V EV041G96

Observer details:
G96 Mt. Lemmon Survey.  Observer A. R. Gibbs.  Measurers E. C. Beshore,
    A. Boattini, G. J. Garradd, A. R. Gibbs, A. D. Grauer, R. E. Hill,
    R. A. Kowalski, S. M. Larson, R. H. McNaught.  1.5-m reflector + CCD.

Orbital elements:
2007 VE8                                                 Earth MOID = 0.0464 AU
Epoch 2007 Oct. 27.0 TT = JDT 2454400.5                 MPC
M 359.13247              (2000.0)            P               Q
n   0.26641000     Peri.  351.90300     +0.80924567     -0.58126894
a   2.3920433      Node    44.00271     +0.54562688     +0.68995867
e   0.5664674      Incl.    7.03928     +0.21774470     +0.43137391
P   3.70           H   25.5           G   0.15           U   9
Residuals in seconds of arc
071105 G96  0.2-  0.0     071105 G96  0.2-  0.0     071105 G96  0.1+  0.1+
071105 G96  0.1-  0.2-    071105 G96  0.1+  0.0     071105 G96  0.1-  0.0
071105 G96  0.4+  0.3+    071105 G96  0.2-  0.2-
071105 G96  0.1-  0.0     071105 G96  0.2+  0.2+

Ephemeris:
2007 VE8                 a,e,i = 2.39, 0.57, 7                   q = 1.0370
Date    TT    R. A. (2000) Decl.     Delta      r     Elong.  Phase     V
2007 11 06    03 40.89   +19 00.5    0.0506   1.041   165.7    13.6    19.9
2007 11 07    03 52.78   +22 32.0    0.0527   1.042   163.1    16.1    20.1
2007 11 08    04 04.21   +25 43.3    0.0550   1.043   160.4    18.5    20.2
2007 11 09    04 15.13   +28 34.6    0.0577   1.044   158.0    20.9    20.4
2007 11 10    04 25.49   +31 06.7    0.0606   1.046   155.7    22.9    20.6
2007 11 11    04 35.29   +33 21.2    0.0637   1.048   153.7    24.8    20.8
2007 11 12    04 44.51   +35 19.6    0.0670   1.050   151.9    26.4    20.9
2007 11 13    04 53.15   +37 03.7    0.0704   1.052   150.4    27.7    21.1
2007 11 14    05 01.23   +38 35.0    0.0740   1.054   149.0    28.9    21.2
2007 11 15    05 08.76   +39 55.3    0.0778   1.056   147.9    29.8    21.4
2007 11 16    05 15.76   +41 05.7    0.0816   1.058   147.0    30.6    21.5

Timothy B. Spahr             (C) Copyright 2007 MPC           M.P.E.C. 2007-V41

Read MPEC 2007-V40 Read MPEC 2007-V42


MPEC number:

Enter an MPEC number in one of the following forms:

  • 1997-B01 (the full form)
  • J97B01 (the packed version of the full form)
  • B01 (the abbreviated form)

Valid HTML 4.01!